{"data":{"norad_id":62282,"epoch":"2026-05-25T00:09:30.335904Z","epoch_age_seconds":64648,"freshness":"FRESH","line1":"1 62282U 24237R   26145.00660111  .00013289  00000+0  49145-3 0  9999","line2":"2 62282  42.9993 145.3552 0001638 262.4571  97.6095 15.27588507 82776","mean_motion":15.27588507,"eccentricity":0.0001638,"inclination_deg":42.9993,"raan_deg":145.3552,"arg_perigee_deg":262.4571,"mean_anomaly_deg":97.6095,"bstar":0.00049145,"rev_number":8277,"period_min":94.266223750792,"perigee_km":481.89976502942,"apogee_km":484.14748124956,"semimajor_km":6861.1606231395,"source":"CELESTRAK","updated_at":"2026-05-25T13:38:19.645052Z"}}